India Forums Logo

Hum ne li hai... Shapath

India Forums > Forum Index > Hum ne li hai... Shapath
Hum ne li hai... Shapath is a story of tough cops against the flawed system with thrilling and contemporary police cases weaved in.
...
<< | 5 | 6 | 7 | 8 | 9 | 10 | 11 | 12 | 13 | 14 | 15 | 16 | 17 | >>
TIDTopic SubjectStart DateLast Entry
3552188LIGHT A CANDLE! Important - Please Visit and Share4/24/2013 10:35:32 AM5/21/2013 12:24:23 PM
3558310Piyush Sahdev does get scared performing stunts4/27/2013 9:27:08 PM5/27/2013 11:56:28 AM
3562936TOI: Vaishnavi Dhanraj in Hum Ne Li Hai.. Shapath4/30/2013 6:34:56 PM5/27/2013 2:43:55 AM
3564554TOI: Kunal Pant in Hum Ne Li Hai Shapath5/1/2013 4:29:35 PM5/27/2013 2:45:11 AM
3571399ita - best actor in a supporting role - kavi5/6/2013 3:21:57 AM5/27/2013 2:47:47 AM
3577248Since I did not work for almost two years, I went5/9/2013 4:00:20 AM5/27/2013 2:46:17 AM
3580806TOI:Ojaswi Oberoi to play super villain in Shapath5/11/2013 6:23:30 AM5/29/2013 4:09:01 AM
3582798TOI: Pankaj Jha in Hum Ne Li Hai..Shapath5/12/2013 3:00:26 PM5/27/2013 2:42:44 AM
3586872wow How can it happen?5/15/2013 4:44:45 AM5/28/2013 1:18:47 AM
358940228th Apr - 4th May Short WU: SC v/s SV Ep 3-85/16/2013 4:51:23 PM5/17/2013 4:47:43 PM
3590976This is my first award in 12 years: Aamir Dalvi5/17/2013 4:46:45 PM5/27/2013 2:38:39 AM
3592195Shresth Kumar in Hum Ne Li Hai ... Shapath5/18/2013 12:24:48 PM5/21/2013 12:29:15 AM
3593494TOI: Akshay Sethi in Hum Ne Li Hai..Shapath5/19/2013 1:49:52 PM5/27/2013 11:26:05 AM
3593900Akshay Sethi to portray negative character5/20/2013 1:29:54 AM5/27/2013 11:59:05 AM
3594819Dream Of Gautsm's Re-Entry On The Show5/20/2013 10:51:00 AM5/21/2013 3:36:26 PM
3596155hey frnds m a new commer5/21/2013 7:50:05 AM5/23/2013 8:25:43 AM
3599206--||FF: Tum Hi Ho||-- (Important Note: PG 9)5/23/2013 5:42:55 AM10/16/2013 1:58:27 PM
3600054TOI: Aham Sharma & Vicky Batra in Shapath5/23/2013 5:46:06 PM5/27/2013 11:25:31 AM
3600320New Couple: Mayank-Roshni5/24/2013 12:37:20 AM5/26/2013 11:15:24 PM
3600330Rakesh Sethi and Madhura Naik to host Big Magic's5/24/2013 12:44:53 AM5/27/2013 2:27:42 AM
3603478Supernatural shapath5/26/2013 3:01:09 PM5/27/2013 4:33:24 PM
3603724Parul Chaudhary in Hum Ne Li Hai...Shapath5/27/2013 12:55:08 AM5/27/2013 2:26:17 AM
3604605Parul Chaudhary in Hum Ne Li Hai...Shapath5/27/2013 12:36:11 PM5/29/2013 1:58:13 AM
3605285~@ THE FEARLESS AND VIGOROUS INSPECTOR ABHIGYAN @~5/28/2013 4:22:38 AM9/13/2013 10:50:55 PM
3606133TOI: Kushal Punjabi as super villain in Shapath5/28/2013 3:46:59 PM6/27/2013 9:55:18 PM
3611107Meet Divyaalakshmi - the enchanting beauty6/1/2013 7:10:23 AM6/27/2013 11:29:13 PM
3616674Dakssh Ajit Singh bags Maharana Pratap6/5/2013 3:58:25 PM6/27/2013 9:58:06 PM
3617429TB:Love,emotions,fear and anxiety in Shapath6/6/2013 7:07:53 AM6/27/2013 9:57:09 PM
3622822'Hum Ne Li Hai Shapath' completes 200 episodes6/10/2013 3:36:43 PM6/27/2013 9:52:18 PM
3622823Aman Verma interview6/10/2013 3:37:44 PM6/27/2013 9:50:19 PM
3622824Dakssh Ajit Singh backs out of Maharana Pratap6/10/2013 3:39:04 PM6/27/2013 9:54:25 PM
3622941HAPPY BIRTHDAY MOON_LYT6/10/2013 9:10:51 PM6/12/2013 8:56:03 AM
3623340TB: 'Hum Ne Li Hai Shapath' completes 200 episodes6/11/2013 4:45:19 AM6/27/2013 9:51:24 PM
3624148TOI: I am not backing out of Maharana Pratap6/11/2013 5:19:23 PM6/27/2013 9:45:10 PM
3624733Piyush Sahdev to quit Shapath; grabs role of RAM6/12/2013 5:53:43 AM6/27/2013 9:46:04 PM
3625623Photos of Shapath Success Party6/12/2013 8:49:37 PM6/28/2013 10:17:08 PM
3625656I always wanted to play Ram: Piyush Sahdev6/12/2013 9:56:11 PM6/27/2013 9:46:44 PM
3625671Rohit Purohit BDAY pics from FB6/12/2013 10:11:33 PM6/27/2013 11:30:27 PM
3626109Piyush Sahdev is a "channel's actor" and to play R6/13/2013 5:46:54 AM6/28/2013 12:23:47 AM
3626651Piyush Sahdev Leaving Shapath Discussions6/13/2013 12:15:45 PM7/29/2013 2:00:26 PM
3626686Aamir Dalvi's Take on Shapath6/13/2013 12:37:29 PM6/27/2013 9:39:16 PM
3626694Shapath and CID6/13/2013 12:46:41 PM11/27/2013 5:50:32 PM
3629873I want to do more on screen stunts: Karishma Modi6/16/2013 6:23:37 AM6/28/2013 12:24:08 AM
3629877Sachin Verma back on Life Ok6/16/2013 6:28:31 AM6/28/2013 12:25:02 AM
3629887Mala Salariya 'would love to do roles' where her f6/16/2013 6:48:52 AM6/27/2013 11:32:07 PM
3635092Life OK comes up with new show: Police- Dial 1006/20/2013 5:45:20 AM6/27/2013 9:37:47 PM
3635936TOI: Aparna Kumar in Hum Ne Li Hai..Shapath6/20/2013 2:40:31 PM6/27/2013 9:35:09 PM
3636092Madhura Naik approached for Bigg Boss 7!!6/20/2013 8:39:36 PM6/28/2013 12:25:17 AM
3636098Madhura Naik bags a film!6/20/2013 8:54:28 PM6/27/2013 9:36:16 PM
3639516Married couple DT: KavBul are out of the list6/23/2013 11:36:43 PM1/23/2014 10:44:08 PM
3641562Cops turn into "super cops" with amazing powers6/25/2013 9:38:22 AM7/15/2013 2:53:16 PM
3642270Nikhil Arya turns into Super Villain for Life OK's6/25/2013 11:00:13 PM6/27/2013 9:31:47 PM
3642273I would want a son like Faisal Khan :Divyaalakshm6/25/2013 11:01:13 PM6/28/2013 12:25:40 AM
3642279Aman Verma glad to be a part of Partho Ghosh's Ben6/25/2013 11:06:50 PM6/27/2013 9:32:25 PM
3642775My contract for Shapath ends in July Aamir Dalvi6/26/2013 6:25:31 AM6/26/2013 11:54:51 AM
3642849'Kyunki...' was turning point for me: Aman Verma6/26/2013 7:28:41 AM6/27/2013 9:34:18 PM
3644330TB:Wedding Bells for Kavi and Bulbul6/27/2013 7:09:11 AM7/10/2013 10:18:00 PM
3646450I'd love to get stuck on an abandoned island with6/28/2013 10:01:28 PM7/10/2013 10:25:06 PM
3646929My contract for Shapath ends in July---Aamir Dalvi6/29/2013 7:57:09 AM7/10/2013 10:25:42 PM
3649380TOI: Weekend TV hits similar notes (HNLHS named)7/1/2013 1:33:36 PM7/10/2013 10:23:08 PM
3652053Shapath's super Cops to enter the 'Comic World'7/3/2013 1:38:12 PM7/10/2013 10:22:10 PM
3652480Arjun wanted to go the Shapath way7/4/2013 1:54:34 AM7/6/2013 2:14:32 PM
3655577Maha Movie on HNLHS to feature Manish Goel7/6/2013 10:30:50 AM7/10/2013 10:20:05 PM
3655990When Inspector Kavi speaks, the language he uses m7/7/2013 1:55:05 AM7/10/2013 10:17:28 PM
3656878Hum Ne Li Hai... Shapath nominated in Gold Awards7/6/2013 6:36:56 PM7/10/2013 10:19:02 PM
3660935TB: 'Horror Story' to spook audiences Oct 257/10/2013 7:27:18 PM7/11/2013 4:30:29 PM
3661396Manish Goel bags Shapath Maha movie7/11/2013 4:17:38 AM7/11/2013 12:19:48 PM
3661399Harsh Chhaya in Cinevistaas' Daag!7/11/2013 4:19:55 AM7/11/2013 12:19:04 PM
3662136Karishma - I have been transformed7/11/2013 12:16:15 PM7/11/2013 9:18:52 PM
3662657Divyaalakshmi in Maharana Pratap and Hum Ne Li Hai7/12/2013 1:54:53 AM7/12/2013 8:50:57 AM
3663235I let my work speak for myself: Hasan Zaidi7/12/2013 9:34:53 AM7/12/2013 9:34:53 AM
3664880TOI: I am quite positive about doing negative role7/13/2013 1:24:55 PM7/13/2013 1:24:55 PM
3667396Manish Goel to feature in Life OK's Shapath Maha M7/16/2013 1:31:59 AM7/16/2013 3:40:12 PM
3667573I am a devotee of Lord Krishna- Piyush Sahdev7/16/2013 3:56:48 AM7/16/2013 10:56:12 PM
3671575"I sleep with no baggage and get up fresh."- Manis7/19/2013 5:09:54 AM7/19/2013 9:50:32 AM
<< | 5 | 6 | 7 | 8 | 9 | 10 | 11 | 12 | 13 | 14 | 15 | 16 | 17 | >>